[[{"header":{"parameterUnit":"m.s-1","parameterCategory":1,"la1":30.2991,"la2":30.254,"lo1":-89.0895,"lo2":-89.0444,"dy":0.0017,"dx":0.0017,"nx":28,"ny":28,"refTime":"2025-11-14T03:00:00:Z","depth":0,"parameterNumber":2,"parameterNumberName":"U-component_of_WINDS"},"data":[0,0,0,0,0,0,0,0,0,0,0,0,0,0,0,0,0,0,0,0,0,0,0,0,0,0,0,0,0,0,0,0,0,0,0,0,0,0,0,0,0,0,0,0,0,0,0,0,0,0,0,0,0,0,0,0,0,0,0.4227,0.4227,0,0.4234,0.4234,0.4235,0.4238,0.4238,0.4238,0.4238,0.4245,0.4245,0.4245,0,0,0,0,0,0,0,0,0,0,0,0,0,0.4217,0.4217,0.4227,0.4227,0.4228,0.4234,0.4234,0.4235,0.4238,0.4238,0.4238,0.4238,0.4245,0.4245,0.4245,0,0,0,0,0,0,0,0,0,0,0,0,0,0.4222,0.4217,0.4227,0.423,0.4231,0.4234,0.4234,0.4235,0.4238,0.4238,0.4238,0.4238,0.4245,0.4245,0.4245,0.4246,0,0,0.4246,0.4246,0,0,0,0,0,0,0,0,0.4222,0.4223,0.423,0.423,0.4231,0.4236,0.4233,0.4238,0.4238,0.4235,0.4238,0.4238,0.4242,0.4242,0.4243,0.4246,0.4247,0.4246,0.4246,0.4246,0.4246,0,0,0,0,0,0,0,0.4222,0.4223,0.423,0.423,0.423,0.4231,0.4232,0.4234,0.4238,0.4236,0.4236,0.4237,0.4242,0.4243,0.4243,0.4247,0.4246,0.4246,0.4246,0.4246,0.4252,0.4252,0,0,0,0,0,0,0.4221,0.4222,0.423,0.423,0.4226,0.4231,0.4232,0.4234,0.4238,0.4239,0.4237,0.4237,0.4243,0.4243,0.4244,0.4246,0.4246,0.4246,0.4246,0.4252,0.4252,0.4252,0,0,0,0,0,0,0.4221,0.4222,0.423,0.4226,0.4227,0.4232,0.4233,0.4234,0.4235,0.4239,0.424,0.4237,0.4243,0.4243,0.4246,0.4246,0.4246,0.4246,0.4252,0.4252,0.4252,0.425,0,0,0,0,0,0,0.422,0.4222,0.4222,0.4226,0.4228,0.4232,0.4233,0.4234,0.4236,0.4236,0.424,0.424,0.4243,0.4245,0.4246,0.4246,0.4247,0.4252,0.4252,0.4252,0.425,0.425,0.4249,0,0,0,0,0,0.422,0.4221,0.4222,0.4223,0.4228,0.4232,0.4232,0.4235,0.4236,0.4236,0.4239,0.424,0.4246,0.4246,0.4246,0.4247,0.4252,0.4252,0.4252,0.425,0.425,0.4249,0,0,0,0,0,0,0.4215,0.4221,0.4223,0.4225,0.4228,0.4232,0.4233,0.4235,0.4237,0.4237,0.4241,0.4241,0.4244,0.4245,0.4245,0.4248,0.4249,0.4249,0.4247,0.4247,0.4247,0.4247,0.4247,0,0,0,0,0,0.4215,0.4217,0.4222,0.4223,0.4225,0.4229,0.423,0.4232,0.4235,0.4236,0.4239,0.4242,0.4244,0.4246,0.4248,0.425,0.4251,0.4251,0.4251,0.4251,0.4251,0.4253,0.4253,0.4252,0.4252,0.4252,0,0,0.4213,0.4217,0.4218,0.4223,0.4225,0.4228,0.423,0.4232,0.4234,0.4237,0.4239,0.4241,0.4245,0.4247,0.4248,0.4249,0.4251,0.4251,0.425,0.4251,0.4253,0.4253,0.4253,0.4252,0.4252,0.4252,0,0,0.4212,0.4214,0.4216,0.4219,0.4223,0.4226,0.4226,0.4231,0.4232,0.4235,0.4238,0.424,0.4244,0.4246,0.4248,0.4249,0.425,0.4249,0.4249,0.4251,0.4251,0.4251,0.4251,0.4252,0.425,0.425,0.425,0,0.4209,0.4213,0.4217,0.4219,0.4222,0.4225,0.4227,0.4229,0.4234,0.4235,0.4236,0.4242,0.4244,0.4247,0.4248,0.4249,0.4249,0.4249,0.425,0.4251,0.4251,0.4251,0.4252,0.4249,0.4249,0.4249,0.4249,0,0.421,0.4213,0.4214,0.4219,0.4221,0.4223,0.4228,0.4229,0.4231,0.4234,0.4237,0.424,0.4244,0.4245,0.4247,0.4249,0.4249,0.425,0.4251,0.4251,0.4251,0.4252,0.4249,0.4249,0.4249,0.4249,0,0,0.4205,0.4213,0.4214,0.4216,0.4222,0.4224,0.4226,0.423,0.4232,0.4235,0.4238,0.4241,0.4243,0.4245,0.4247,0.4248,0.4249,0.4249,0.4249,0.4249,0.4253,0.4252,0.4252,0.4251,0.4251,0.4251,0.4252,0,0.4205,0.421,0.4214,0.4218,0.4221,0.4224,0.4227,0.423,0.4233,0.4236,0.4239,0.4242,0.4243,0.4244,0.4246,0.4249,0.425,0.4249,0.4253,0.4253,0.4252,0.4253,0.4252,0.4253,0.4253,0.4253,0.4253,0,0.4205,0.4209,0.4213,0.4219,0.422,0.4222,0.4227,0.4229,0.4234,0.4236,0.4238,0.4241,0.4244,0.4244,0.4249,0.4248,0.425,0.4252,0.4252,0.4253,0.4253,0.4253,0.4254,0.4254,0.4253,0.4253,0.4253,0,0.4202,0.4208,0.4212,0.4214,0.422,0.4222,0.4225,0.4229,0.4232,0.4235,0.4237,0.4241,0.4243,0.4246,0.4249,0.4249,0.4254,0.4254,0.4256,0.4255,0.4256,0.4256,0.4257,0.4257,0.4257,0.4257,0.4257,0,0.4201,0.4204,0.421,0.4213,0.4216,0.422,0.4223,0.4226,0.423,0.4233,0.4236,0.4239,0.4243,0.4247,0.4249,0.4253,0.4254,0.4255,0.4256,0.4255,0.4255,0.4257,0.4257,0.4257,0.4257,0.4257,0.4257,0,0.4198,0.4203,0.4207,0.4213,0.4215,0.4217,0.4222,0.4225,0.4228,0.4232,0.4233,0.4238,0.4242,0.4246,0.4251,0.4253,0.4257,0.4257,0.4255,0.4256,0.4257,0.4257,0.4259,0.426,0.4259,0.4259,0.4259,0,0.4197,0.42,0.4207,0.4209,0.4212,0.4216,0.4219,0.4223,0.4226,0.4231,0.4233,0.4238,0.4241,0.4248,0.4252,0.4256,0.4257,0.4257,0.4257,0.4257,0.4257,0.4257,0.4258,0.4257,0.4257,0.4257,0.4257,0,0.4196,0.4198,0.4203,0.4208,0.4211,0.4215,0.4219,0.4221,0.4227,0.4229,0.4234,0.4237,0.4243,0.4247,0.4252,0.4255,0.4257,0.4257,0.4258,0.4257,0.4256,0.4257,0.4255,0.4257,0.4257,0.4257,0.4257,0.4257,0.4194,0.4197,0.4202,0.4207,0.4211,0.4215,0.4218,0.4222,0.4226,0.4231,0.4234,0.4238,0.4243,0.425,0.4253,0.4256,0.4257,0.4258,0.4258,0.4258,0.4258,0.4255,0.4257,0.4257,0.4257,0.4257,0.4257,0,0.4194,0.4198,0.4202,0.4208,0.4212,0.4214,0.4219,0.4222,0.4226,0.4231,0.4235,0.424,0.4245,0.4249,0.4254,0.4256,0.4258,0.4257,0.4257,0.4258,0.4257,0.4256,0.4256,0.4256,0.4256,0.4256,0.4256,0.4256,0.4194,0.4198,0.4201,0.4208,0.4212,0.4217,0.422,0.4224,0.4227,0.4233,0.4237,0.4241,0.4245,0.4251,0.4255,0.4256,0.4258,0.4258,0.4259,0.4258,0.4258,0.4258,0.4257,0.4258,0.4258,0.426,0.426,0.426]},{"header":{"parameterUnit":"m.s-1","parameterCategory":1,"la1":30.2991,"la2":30.254,"lo1":-89.0895,"lo2":-89.0444,"dy":0.0017,"dx":0.0017,"nx":28,"ny":28,"refTime":"2025-11-14T03:00:00:Z","depth":0,"parameterNumber":3,"parameterNumberName":"V-component_of_WINDS"},"data":[0,0,0,0,0,0,0,0,0,0,0,0,0,0,0,0,0,0,0,0,0,0,0,0,0,0,0,0,0,0,0,0,0,0,0,0,0,0,0,0,0,0,0,0,0,0,0,0,0,0,0,0,0,0,0,0,0,0,0.5817,0.5816,0,0.5796,0.5796,0.5795,0.5803,0.5803,0.5803,0.5804,0.578,0.5779,0.5778,0,0,0,0,0,0,0,0,0,0,0,0,0,0.586,0.5859,0.5817,0.5816,0.5816,0.5796,0.5796,0.5795,0.5802,0.5803,0.5804,0.5804,0.578,0.5779,0.5778,0,0,0,0,0,0,0,0,0,0,0,0,0,0.584,0.5859,0.5817,0.5817,0.5817,0.5796,0.5796,0.5795,0.5802,0.5803,0.5804,0.5804,0.5781,0.5779,0.5778,0.5754,0,0,0.5773,0.5772,0,0,0,0,0,0,0,0,0.5841,0.5839,0.5818,0.5817,0.5817,0.5803,0.5802,0.5781,0.5802,0.5808,0.5804,0.5805,0.5787,0.5785,0.5779,0.5753,0.5751,0.5773,0.5772,0.5771,0.577,0,0,0,0,0,0,0,0.5843,0.584,0.5808,0.5817,0.5817,0.5818,0.5816,0.5798,0.5794,0.5807,0.5808,0.5806,0.5787,0.5781,0.5779,0.5751,0.5773,0.5771,0.577,0.577,0.5703,0.5702,0,0,0,0,0,0,0.5845,0.5841,0.5809,0.5808,0.5831,0.5816,0.5814,0.5806,0.5794,0.5793,0.5805,0.5806,0.5783,0.5781,0.5778,0.5749,0.5771,0.5769,0.5768,0.5704,0.5703,0.5702,0,0,0,0,0,0,0.5846,0.5842,0.581,0.5824,0.582,0.5815,0.5806,0.5806,0.58,0.5792,0.5791,0.58,0.5784,0.578,0.576,0.5748,0.5769,0.5767,0.5705,0.5704,0.5702,0.569,0,0,0,0,0,0,0.5847,0.5842,0.5834,0.5824,0.582,0.5793,0.5805,0.5805,0.5797,0.5798,0.5787,0.5786,0.5784,0.5762,0.5758,0.5746,0.5766,0.5706,0.5704,0.5703,0.5691,0.5688,0.5686,0,0,0,0,0,0.5848,0.583,0.5833,0.5829,0.5809,0.5792,0.5789,0.5789,0.5796,0.5787,0.5782,0.5786,0.575,0.576,0.5755,0.5743,0.5707,0.5705,0.5703,0.5693,0.5689,0.5686,0,0,0,0,0,0,0.5838,0.5829,0.5832,0.5811,0.5802,0.5793,0.5782,0.5785,0.5773,0.5775,0.5773,0.5771,0.5749,0.5744,0.5755,0.5718,0.5729,0.5726,0.5723,0.5719,0.5717,0.5718,0.5765,0,0,0,0,0,0.5833,0.5821,0.5814,0.5795,0.5791,0.5787,0.578,0.578,0.5771,0.5767,0.576,0.575,0.5737,0.5728,0.5715,0.5691,0.5688,0.568,0.5677,0.5675,0.5672,0.5658,0.5654,0.5696,0.5696,0.5696,0,0,0.5823,0.5817,0.5809,0.5793,0.5787,0.5773,0.5784,0.5769,0.5759,0.5764,0.5745,0.574,0.5728,0.5706,0.5696,0.5701,0.566,0.5673,0.5671,0.5669,0.5656,0.5652,0.5649,0.5695,0.5695,0.5695,0,0,0.5797,0.5792,0.5776,0.5769,0.5759,0.5757,0.5753,0.5744,0.5741,0.5721,0.5725,0.5712,0.5689,0.5681,0.5673,0.5645,0.5648,0.5641,0.5626,0.5613,0.5609,0.5606,0.5596,0.5592,0.5638,0.5638,0.5638,0,0.5786,0.5766,0.5767,0.5752,0.5745,0.575,0.5733,0.5726,0.5712,0.5707,0.5713,0.5684,0.5676,0.5652,0.5645,0.5639,0.5634,0.5642,0.561,0.5607,0.5604,0.5594,0.559,0.5637,0.5637,0.5637,0.5638,0,0.5752,0.5739,0.5727,0.5714,0.5706,0.569,0.5687,0.5678,0.5679,0.5676,0.5655,0.5647,0.5632,0.5626,0.5627,0.5602,0.5605,0.5611,0.5621,0.5599,0.559,0.5586,0.5636,0.5636,0.5637,0.5637,0,0,0.5719,0.5707,0.5703,0.5697,0.5687,0.5676,0.566,0.5646,0.5638,0.5628,0.5614,0.5595,0.56,0.5591,0.5591,0.5579,0.5556,0.5586,0.5586,0.558,0.5527,0.5523,0.5518,0.5558,0.5558,0.5557,0.5528,0,0.5693,0.5666,0.5666,0.5641,0.5628,0.5632,0.5618,0.561,0.5606,0.5594,0.559,0.5575,0.5583,0.5578,0.5567,0.5562,0.5545,0.5564,0.5544,0.5544,0.5547,0.5513,0.5508,0.5481,0.5524,0.5523,0.5523,0,0.5658,0.5648,0.5622,0.5613,0.5607,0.5595,0.5582,0.5571,0.5561,0.5559,0.555,0.5551,0.5534,0.5546,0.5522,0.5534,0.5526,0.5522,0.5521,0.5519,0.5532,0.5509,0.5473,0.5468,0.5517,0.5518,0.5518,0,0.5636,0.5615,0.5597,0.5592,0.5581,0.5572,0.5567,0.5558,0.555,0.5539,0.5533,0.552,0.5512,0.5501,0.5498,0.5507,0.5474,0.5485,0.5471,0.5471,0.5463,0.5464,0.5424,0.5459,0.5459,0.5459,0.5459,0,0.5606,0.5589,0.5587,0.5576,0.5557,0.5557,0.5538,0.5534,0.5526,0.5513,0.5516,0.5503,0.5501,0.5487,0.5485,0.5465,0.5462,0.5459,0.5458,0.5458,0.5459,0.5453,0.5454,0.5458,0.5459,0.5459,0.5459,0,0.5578,0.5576,0.5556,0.5548,0.5545,0.5532,0.5524,0.5513,0.551,0.5493,0.5489,0.5484,0.5468,0.5465,0.5446,0.5444,0.542,0.5422,0.5424,0.5424,0.541,0.5411,0.5364,0.5358,0.5398,0.5397,0.5397,0,0.5558,0.5546,0.5537,0.5529,0.5523,0.551,0.5502,0.5501,0.5492,0.548,0.547,0.5455,0.5443,0.5418,0.5412,0.5398,0.5398,0.5383,0.5396,0.5396,0.5397,0.5398,0.5396,0.538,0.538,0.538,0.5379,0,0.5524,0.5524,0.5512,0.55,0.5491,0.5481,0.5472,0.5465,0.5462,0.5452,0.5437,0.5428,0.5409,0.5394,0.5379,0.5373,0.5375,0.5376,0.5371,0.5371,0.5372,0.5371,0.5417,0.5376,0.5377,0.5377,0.5377,0.5377,0.5499,0.5488,0.548,0.5467,0.546,0.5452,0.544,0.5436,0.5424,0.5409,0.5409,0.5392,0.5382,0.5363,0.5356,0.5342,0.5347,0.5341,0.5339,0.5337,0.5336,0.5375,0.5339,0.534,0.534,0.534,0.534,0,0.5465,0.546,0.5448,0.5435,0.5425,0.5429,0.5419,0.541,0.5395,0.5386,0.5374,0.5356,0.5342,0.5334,0.532,0.531,0.531,0.5306,0.5306,0.5304,0.5333,0.5338,0.5305,0.5305,0.5306,0.5306,0.5306,0.5306,0.5446,0.5427,0.5426,0.5404,0.5398,0.5383,0.5376,0.5368,0.5361,0.5341,0.5329,0.5325,0.5316,0.5301,0.5287,0.5285,0.5279,0.5274,0.5273,0.5299,0.5303,0.5306,0.531,0.5273,0.5273,0.5245,0.5245,0.5245]}]]